Weather Roundup
Issued by NWS Chicago, IL

Home | Current Version | Previous Version | Text Only | Print | Product List | Glossary On
Versions: 1 2 3 4 5 6 7 8 9 10 11 12 13 14 15 16 17 18 19 20 21 22 23 24 25 26 27 28 29 30 31 32 33 34 35 36 37 38 39 40 41 42 43 44 45 46 47 48 49 50
000
NZUS59 KLOT 261908
HRRLOT

CHICAGO AREA WEATHER ROUNDUP
NATIONAL WEATHER SERVICE CHICAGO/ROMEOVILLE IL
200 PM CDT MON JUN 26 2017

NOTE: "FAIR" INDICATES FEW OR NO CLOUDS BELOW 12,000 FEET WITH NO
SIGNIFICANT WEATHER AND/OR OBSTRUCTIONS TO VISIBILITY.

* THESE STATIONS ARE NOT UNDER NWS QUALITY CONTROL. THEY ALSO MAY NOT
  REPORT WEATHER SUCH AS PRECIPITATION OR FOG.

ILZ005-006-012>014-019>023-262000-
NORTHEAST ILLINOIS

CITY           SKY/WX    TMP DP  RH WIND       PRES   REMARKS
OHARE          PTSUNNY   72  43  35 NW18G26   30.05F
MIDWAY         PTSUNNY   72  44  36 NW21G26   30.05F
AURORA         LGT RAIN  74  45  35 W23       30.07F
LANSING*       LGT RAIN  69  46  43 W13       30.06F
JOLIET*        PTSUNNY   74  46  36 W13G22    30.07F
WAUKEGAN       MOSUNNY   69  45  41 NW14G23   30.04F
DUPAGE AIRPORT MOSUNNY   70  45  40 W17G28    30.06F
WHEELING       PTSUNNY   69  43  38 NW14G26   30.06F
MORRIS*        MOSUNNY   72  44  36 W17G25    30.06F
LEWIS AIRPORT* PTSUNNY   73  42  33 W18       30.07F
NORTHERLY ISL    N/A     71  37  28 SW12        N/A
$$

WIZ051-052-058>065-066-070>072-262000-
SOUTHEAST WISCONSIN

CITY           SKY/WX    TMP DP  RH WIND       PRES   REMARKS
MILWAUKEE      PTSUNNY   66  43  43 NW17G26   30.04F
KENOSHA*       MOSUNNY   67  41  38 NW21G29   30.05F
RACINE*        PTSUNNY   68  43  40 W16G24    30.06F
WAUKESHA       CLOUDY    59  43  55 W17G26    30.07F
WEST BEND      CLOUDY    59  43  55 NW21      30.05S
$$

INZ001>003-010>013-019-020-262000-
NORTHWEST INDIANA

CITY           SKY/WX    TMP DP  RH WIND       PRES   REMARKS
GARY*          PTSUNNY   75  39  27 W17       30.06F
MICHIGAN CITY* NOT AVBL
RENSSELAER*    NOT AVBL
VALPARAISO     MOSUNNY   73  48  41 W15       30.06F
$$

LMZ740>746-262000-
SOUTHERN LAKE MICHIGAN

STATION/POSITION TIME  SKY/WX   TEMP WIND        PRES    VSBY
                                AIR  DIR/SP/G
                 (UTC)          (F)  (DEG/KT/KT) (MB)    (MI)
HARRISON CRIB    1840            69  290/ 19/ 24   N/A
BURNHAM HARBOR   1900            70                N/A
CALUMET HARBOR   1848            71  280/  9/ 18 1017.0F
BURNS HARBOR     1840            67  280/ 12/ 20 1018.3F
MICHIGAN CITY    1840            67  330/  6/  6   N/A
$$

ABBREVIATIONS USED IN REMARKS
   TC - TEMPERATURE IN CELSIUS
  WCI - WIND CHILL INDEX
   HX - HEAT INDEX
  VSB - VISIBILITY
$$



USA.gov is the U.S. government's official web portal to all federal, state and local government web resources and services.